[[{"header":{"parameterUnit":"m.s-1","parameterCategory":1,"la1":30.2991,"la2":30.254,"lo1":-89.0895,"lo2":-89.0444,"dy":0.0017,"dx":0.0017,"nx":28,"ny":28,"refTime":"2024-03-29T21:00:00:Z","depth":0,"parameterNumber":2,"parameterNumberName":"U-component_of_WINDS"},"data":[0,0,0,0,0,0,0,0,0,0,0,0,0,0,0,0,0,0,0,0,0,0,0,0,0,0,0,0,0,0,0,0,0,0,0,0,0,0,0,0,0,0,0,0,0,0,0,0,0,0,0,0,0,0,0,0,0,0,-1.6529,-1.6529,0,-1.6552,-1.6553,-1.6553,-1.6535,-1.6534,-1.6533,-1.6533,-1.6556,-1.6557,-1.6558,0,0,0,0,0,0,0,0,0,0,0,0,0,-1.6467,-1.6468,-1.6529,-1.6529,-1.653,-1.6552,-1.6553,-1.6553,-1.6535,-1.6534,-1.6533,-1.6532,-1.6555,-1.6557,-1.6558,0,0,0,0,0,0,0,0,0,0,0,0,0,-1.6492,-1.6468,-1.6529,-1.6523,-1.6523,-1.6552,-1.6553,-1.6553,-1.6535,-1.6534,-1.6533,-1.6532,-1.6555,-1.6557,-1.6559,-1.6594,0,0,-1.6565,-1.6566,0,0,0,0,0,0,0,0,-1.6491,-1.6494,-1.6524,-1.6524,-1.6524,-1.654,-1.6539,-1.6567,-1.6536,-1.6531,-1.6533,-1.6531,-1.6551,-1.6553,-1.656,-1.6595,-1.6596,-1.6565,-1.6566,-1.6567,-1.6567,0,0,0,0,0,0,0,-1.6489,-1.6493,-1.6538,-1.6524,-1.6524,-1.6519,-1.6521,-1.6544,-1.6547,-1.6531,-1.653,-1.6533,-1.6551,-1.6558,-1.6561,-1.6596,-1.6565,-1.6567,-1.6568,-1.6569,-1.6658,-1.666,0,0,0,0,0,0,-1.6488,-1.6492,-1.6537,-1.6539,-1.6504,-1.6521,-1.6524,-1.6536,-1.6547,-1.6547,-1.6534,-1.6532,-1.6556,-1.6558,-1.6561,-1.6601,-1.6567,-1.6569,-1.657,-1.6657,-1.6659,-1.666,0,0,0,0,0,0,-1.6487,-1.6492,-1.6537,-1.6515,-1.652,-1.6523,-1.6537,-1.6537,-1.6544,-1.6549,-1.6549,-1.6541,-1.6555,-1.6559,-1.6585,-1.6602,-1.657,-1.6571,-1.6656,-1.6658,-1.6659,-1.6683,0,0,0,0,0,0,-1.6485,-1.6492,-1.6506,-1.6516,-1.6522,-1.6561,-1.6538,-1.6538,-1.6548,-1.6546,-1.6556,-1.6556,-1.6554,-1.6583,-1.6587,-1.6604,-1.6573,-1.6654,-1.6657,-1.6659,-1.6681,-1.6686,-1.669,0,0,0,0,0,-1.6483,-1.6512,-1.6507,-1.6513,-1.654,-1.6562,-1.6565,-1.6563,-1.6549,-1.6563,-1.6565,-1.6556,-1.66,-1.6585,-1.6591,-1.6608,-1.6653,-1.6656,-1.6659,-1.6679,-1.6685,-1.669,0,0,0,0,0,0,-1.6505,-1.6514,-1.6508,-1.6541,-1.6551,-1.6559,-1.6576,-1.6569,-1.6583,-1.658,-1.6575,-1.6578,-1.6605,-1.661,-1.6594,-1.6642,-1.6624,-1.6628,-1.6638,-1.6643,-1.6648,-1.6645,-1.6575,0,0,0,0,0,-1.6514,-1.6532,-1.6538,-1.6567,-1.6573,-1.6574,-1.6583,-1.658,-1.659,-1.6594,-1.6599,-1.6608,-1.6623,-1.6634,-1.6649,-1.6682,-1.6683,-1.6696,-1.6701,-1.6704,-1.6707,-1.6723,-1.6728,-1.6669,-1.6669,-1.6669,0,0,-1.6533,-1.6539,-1.6551,-1.6572,-1.6579,-1.6597,-1.6577,-1.6598,-1.661,-1.6597,-1.6622,-1.6626,-1.6636,-1.6665,-1.6678,-1.667,-1.6724,-1.6708,-1.6711,-1.6712,-1.6726,-1.6731,-1.6736,-1.6671,-1.667,-1.667,0,0,-1.6575,-1.6583,-1.6606,-1.6614,-1.6624,-1.6625,-1.663,-1.6639,-1.6641,-1.6666,-1.6655,-1.667,-1.6698,-1.6705,-1.6712,-1.6754,-1.6745,-1.6759,-1.6781,-1.6796,-1.6801,-1.6805,-1.6818,-1.6823,-1.6762,-1.6762,-1.6762,0,-1.6596,-1.6623,-1.662,-1.664,-1.6648,-1.6637,-1.666,-1.6667,-1.6682,-1.6687,-1.6678,-1.671,-1.6717,-1.6746,-1.6756,-1.6763,-1.6768,-1.6757,-1.6801,-1.6805,-1.6808,-1.6821,-1.6826,-1.6764,-1.6764,-1.6764,-1.6763,0,-1.6648,-1.6666,-1.6684,-1.6698,-1.6709,-1.673,-1.6729,-1.674,-1.6735,-1.6736,-1.676,-1.6767,-1.6782,-1.6789,-1.6785,-1.6818,-1.6811,-1.6801,-1.6783,-1.6816,-1.6827,-1.6832,-1.6766,-1.6766,-1.6765,-1.6765,0,0,-1.6705,-1.6716,-1.6722,-1.6727,-1.6737,-1.6751,-1.6771,-1.6785,-1.6794,-1.6804,-1.682,-1.6843,-1.6833,-1.6841,-1.6837,-1.6851,-1.6881,-1.6838,-1.6839,-1.6844,-1.6914,-1.6921,-1.6926,-1.6875,-1.6876,-1.6877,-1.6913,0,-1.6746,-1.6781,-1.6778,-1.6811,-1.6826,-1.6815,-1.6832,-1.6839,-1.684,-1.6853,-1.6854,-1.6869,-1.6856,-1.686,-1.6873,-1.6875,-1.6895,-1.6872,-1.6888,-1.6889,-1.6885,-1.6933,-1.694,-1.6973,-1.6917,-1.6918,-1.6919,0,-1.6799,-1.681,-1.6844,-1.685,-1.6856,-1.6872,-1.6883,-1.6896,-1.6904,-1.6903,-1.6911,-1.6905,-1.6924,-1.6906,-1.6931,-1.6916,-1.6922,-1.6923,-1.6925,-1.6925,-1.6905,-1.6932,-1.6984,-1.6988,-1.6926,-1.6926,-1.6925,0,-1.6835,-1.6859,-1.6881,-1.6886,-1.6894,-1.6904,-1.6908,-1.6914,-1.6922,-1.6932,-1.6937,-1.6949,-1.6956,-1.6965,-1.6961,-1.6949,-1.6986,-1.6969,-1.6985,-1.6985,-1.6992,-1.6992,-1.7044,-1.6999,-1.6999,-1.6999,-1.6999,0,-1.688,-1.6901,-1.6897,-1.6911,-1.6933,-1.6928,-1.6951,-1.6953,-1.6958,-1.6971,-1.6962,-1.6975,-1.697,-1.6982,-1.698,-1.7,-1.7003,-1.7002,-1.7001,-1.7002,-1.7002,-1.7005,-1.7002,-1.7001,-1.7,-1.7,-1.7,0,-1.6924,-1.6922,-1.6946,-1.695,-1.6952,-1.6968,-1.6971,-1.6983,-1.6983,-1.7,-1.7003,-1.7003,-1.7016,-1.7014,-1.7029,-1.7027,-1.7051,-1.7048,-1.7049,-1.7047,-1.7063,-1.7061,-1.7118,-1.7124,-1.7077,-1.7078,-1.7078,0,-1.6952,-1.6967,-1.6973,-1.6981,-1.6984,-1.6998,-1.7005,-1.7001,-1.7009,-1.7017,-1.7028,-1.7041,-1.705,-1.7072,-1.7073,-1.7084,-1.708,-1.7099,-1.7081,-1.7081,-1.7077,-1.7076,-1.7076,-1.7102,-1.7102,-1.7103,-1.7103,0,-1.7001,-1.6999,-1.701,-1.7021,-1.703,-1.7038,-1.7045,-1.7052,-1.7048,-1.7057,-1.707,-1.7078,-1.7092,-1.7104,-1.7114,-1.7117,-1.7109,-1.7109,-1.7113,-1.7113,-1.7112,-1.7111,-1.7056,-1.7107,-1.7107,-1.7107,-1.7106,-1.7106,-1.7036,-1.7048,-1.7053,-1.7066,-1.707,-1.7077,-1.7088,-1.7088,-1.7099,-1.711,-1.7107,-1.7121,-1.7126,-1.7139,-1.7143,-1.7153,-1.7146,-1.7152,-1.7154,-1.7155,-1.7156,-1.7112,-1.7155,-1.7155,-1.7155,-1.7155,-1.7155,0,-1.7083,-1.7085,-1.7097,-1.7106,-1.7115,-1.7107,-1.7114,-1.7122,-1.7135,-1.714,-1.7149,-1.7163,-1.7174,-1.7175,-1.7185,-1.7194,-1.719,-1.7196,-1.7195,-1.7195,-1.7163,-1.7157,-1.7199,-1.7199,-1.7199,-1.7199,-1.7199,-1.7199,-1.7109,-1.7128,-1.7126,-1.7147,-1.7149,-1.7163,-1.7167,-1.7172,-1.7176,-1.7192,-1.7201,-1.7201,-1.7205,-1.7214,-1.7224,-1.7224,-1.7227,-1.7234,-1.7233,-1.7202,-1.7198,-1.7193,-1.7188,-1.7235,-1.7236,-1.7264,-1.7264,-1.7264]},{"header":{"parameterUnit":"m.s-1","parameterCategory":1,"la1":30.2991,"la2":30.254,"lo1":-89.0895,"lo2":-89.0444,"dy":0.0017,"dx":0.0017,"nx":28,"ny":28,"refTime":"2024-03-29T21:00:00:Z","depth":0,"parameterNumber":3,"parameterNumberName":"V-component_of_WINDS"},"data":[0,0,0,0,0,0,0,0,0,0,0,0,0,0,0,0,0,0,0,0,0,0,0,0,0,0,0,0,0,0,0,0,0,0,0,0,0,0,0,0,0,0,0,0,0,0,0,0,0,0,0,0,0,0,0,0,0,0,2.6932,2.693,0,2.6756,2.6754,2.6752,2.6737,2.6739,2.674,2.6742,2.6553,2.6546,2.6539,0,0,0,0,0,0,0,0,0,0,0,0,0,2.7248,2.7242,2.6932,2.693,2.6928,2.6756,2.6754,2.6751,2.6736,2.6739,2.6741,2.6743,2.6555,2.6547,2.6538,0,0,0,0,0,0,0,0,0,0,0,0,0,2.7095,2.7241,2.6932,2.69,2.6895,2.6757,2.6754,2.6751,2.6736,2.6739,2.6742,2.6744,2.6557,2.6547,2.6537,2.6417,0,0,2.6506,2.6502,0,0,0,0,0,0,0,0,2.7104,2.7083,2.6907,2.6902,2.6896,2.6771,2.6796,2.6638,2.6735,2.6796,2.6742,2.6746,2.6622,2.6607,2.6567,2.6408,2.64,2.6505,2.6499,2.6495,2.6492,0,0,0,0,0,0,0,2.7114,2.7091,2.6862,2.6904,2.6898,2.6891,2.6873,2.6766,2.6695,2.6791,2.6789,2.6769,2.662,2.6577,2.6563,2.6397,2.6505,2.6496,2.649,2.6486,2.6132,2.6128,0,0,0,0,0,0,2.7132,2.71,2.6868,2.6857,2.701,2.6884,2.6863,2.6808,2.6696,2.6682,2.6767,2.6769,2.6593,2.6575,2.6556,2.6409,2.6495,2.6485,2.6479,2.6135,2.6131,2.6127,0,0,0,0,0,0,2.7139,2.7112,2.6875,2.6978,2.6947,2.6875,2.6814,2.6803,2.6761,2.6678,2.6665,2.6737,2.6595,2.657,2.6453,2.6402,2.648,2.6471,2.6139,2.6134,2.6129,2.6112,0,0,0,0,0,0,2.7148,2.7114,2.7069,2.6977,2.6942,2.6776,2.6811,2.6798,2.6744,2.6745,2.6646,2.6632,2.6595,2.6468,2.6442,2.6389,2.6463,2.6143,2.6136,2.6131,2.6117,2.6107,2.6099,0,0,0,0,0,2.716,2.7069,2.7067,2.7039,2.6884,2.6773,2.6753,2.6714,2.674,2.6693,2.6641,2.6636,2.6412,2.6456,2.6427,2.637,2.6146,2.6138,2.6131,2.6121,2.6109,2.6099,0,0,0,0,0,0,2.7152,2.7056,2.7053,2.693,2.6861,2.6771,2.671,2.6703,2.6622,2.6626,2.6579,2.6557,2.6441,2.6393,2.6444,2.6248,2.6281,2.6268,2.6283,2.6272,2.6263,2.6276,2.6455,0,0,0,0,0,2.7137,2.7058,2.6977,2.6876,2.6842,2.6782,2.6732,2.671,2.6634,2.6604,2.6542,2.6467,2.638,2.6323,2.6238,2.6111,2.6089,2.6057,2.6048,2.6041,2.603,2.596,2.5945,2.6103,2.6103,2.6103,0,0,2.7103,2.7041,2.6993,2.6873,2.6816,2.6733,2.6757,2.6667,2.6605,2.6589,2.6475,2.6428,2.6341,2.6218,2.6161,2.6175,2.5982,2.6032,2.6027,2.6019,2.5951,2.5936,2.5923,2.6098,2.6099,2.61,0,0,2.6999,2.6945,2.6856,2.68,2.6716,2.6677,2.6656,2.6569,2.6538,2.6424,2.6411,2.6335,2.6185,2.6125,2.6074,2.5952,2.5944,2.5925,2.5878,2.5811,2.5798,2.5787,2.5744,2.5729,2.5914,2.5914,2.5914,0,2.6967,2.6844,2.681,2.6722,2.667,2.6656,2.6565,2.6511,2.6402,2.6365,2.6384,2.6199,2.6139,2.6003,2.5974,2.5933,2.5906,2.5935,2.5803,2.5792,2.5781,2.5739,2.5722,2.5913,2.5913,2.5913,2.5913,0,2.6809,2.6724,2.6661,2.6561,2.6502,2.6412,2.6364,2.6307,2.6291,2.625,2.6135,2.6063,2.5965,2.5931,2.5912,2.5792,2.5804,2.5814,2.5845,2.5764,2.5724,2.5708,2.591,2.5911,2.5911,2.5912,0,0,2.6691,2.6578,2.6555,2.6511,2.6419,2.6351,2.6261,2.6169,2.6122,2.6047,2.597,2.5847,2.5856,2.5799,2.5773,2.5714,2.5623,2.5731,2.5728,2.5713,2.5488,2.5481,2.5463,2.5619,2.5616,2.5613,2.5496,0,2.6577,2.6421,2.6389,2.6252,2.6174,2.6161,2.6083,2.6017,2.5978,2.5904,2.5859,2.5772,2.5791,2.5757,2.5698,2.5647,2.5577,2.5655,2.5545,2.5541,2.5567,2.5442,2.5434,2.5326,2.548,2.5477,2.5475,0,2.6422,2.635,2.6206,2.6128,2.6093,2.6024,2.5938,2.5868,2.5793,2.5768,2.5707,2.5689,2.5594,2.5633,2.5501,2.5555,2.5508,2.5476,2.5471,2.5458,2.5502,2.5426,2.5291,2.5275,2.545,2.5452,2.5454,0,2.6352,2.6218,2.6116,2.6078,2.5983,2.5935,2.5892,2.5821,2.5769,2.5693,2.5658,2.5571,2.5523,2.5455,2.5414,2.5446,2.5285,2.532,2.5261,2.5262,2.5226,2.5229,2.5082,2.5198,2.5198,2.5198,2.5199,0,2.6227,2.614,2.6083,2.602,2.5922,2.5886,2.5789,2.5747,2.5684,2.5612,2.5595,2.5526,2.5476,2.54,2.5367,2.5263,2.5241,2.5218,2.521,2.5219,2.5222,2.5187,2.5193,2.5194,2.5195,2.5196,2.5196,0,2.6131,2.609,2.5978,2.5899,2.5878,2.5809,2.574,2.5678,2.564,2.5548,2.5524,2.5464,2.5374,2.5327,2.5213,2.5191,2.5075,2.5071,2.5101,2.5098,2.5042,2.5048,2.4866,2.484,2.4974,2.4973,2.4972,0,2.6054,2.5987,2.5904,2.5856,2.5814,2.5736,2.5684,2.5646,2.5592,2.5504,2.5452,2.5363,2.5289,2.5146,2.509,2.5004,2.4998,2.494,2.4984,2.4996,2.4997,2.5001,2.4994,2.4932,2.493,2.4929,2.4929,0,2.5921,2.5905,2.5832,2.5753,2.5692,2.5626,2.5561,2.5522,2.5474,2.5414,2.5325,2.5268,2.5155,2.5066,2.4976,2.493,2.4921,2.4916,2.4898,2.4905,2.4926,2.4914,2.508,2.4919,2.492,2.4921,2.4922,2.4922,2.5832,2.5773,2.5706,2.5626,2.5574,2.5515,2.5453,2.541,2.5336,2.5243,2.5225,2.513,2.5059,2.4938,2.489,2.4815,2.4826,2.4799,2.4792,2.4786,2.4784,2.494,2.4798,2.4798,2.4798,2.4798,2.4798,0,2.5698,2.5656,2.5583,2.5495,2.5432,2.5434,2.5362,2.5309,2.5227,2.5163,2.5092,2.499,2.4904,2.4844,2.4757,2.4708,2.4701,2.4686,2.4689,2.4678,2.4779,2.4803,2.4693,2.4693,2.4693,2.4693,2.4693,2.4693,2.5621,2.5523,2.5499,2.5375,2.5332,2.5242,2.5201,2.5146,2.5095,2.4983,2.4914,2.4877,2.4814,2.4723,2.4644,2.4629,2.4597,2.4582,2.4566,2.466,2.4671,2.4682,2.4705,2.4575,2.4575,2.4472,2.4471,2.447]}]]